www.pogodaiklimat.ru

Погода и климат >> Архив погоды >> Украина >> Лозовая


ПОГОДА в Лозовой

  • Прогноз погоды в Лозовой
  • Монитор погоды в Лозовой

АРХИВ ПОГОДЫ в Лозовой

Время (UTC), дата Ветер
(напр.,м/с)
 
Видим.   Явления Облачность Т
(С)
Тd
(С)
f
(%)
Тe
(С)
Тes
(С)
Комфортность P
(гПа)
Po
(гПа)
Тmin
(С)
Tmax
(С)
R
(мм)
R24
(мм)
S
(см)
09 15.08 ЮВ 5 10 км 8/0
[Ci]
+29.5 +4.2 20 +28 +28 жарко 1009.0 989.1
12 15.08 ЮВ 5 10 км 9/3 600 м
[Cu hum Ac und Ci]
+31.9 +5.4 19 +30 +30 жарко 1008.0 988.2
15 15.08 ЮВ 1 10 км 9/9 600 м
[Cb calv Ac As]
+29.7 +10.7 31 +30 +30 жарко 1007.0 987.1
18 15.08 З 1 10 км 9/9 600 м
[Sc]
+24.8 +14.8 54 +28 +28 жарко 1007.0 986.9 +32.4
21 15.08 СЗ 1 10 км 9/9 600 м
[Sc]
+22.4 +14.8 62 +26 +26 жарко 1007.0 986.7
00 16.08 СЗ 4 10 км 9/9 600 м
[Sc]
+20.2 +13.9 67 +22 +22 комфорт 1007.0 986.5
03 16.08 С 2 10 км 8/6 600 м
[Sc Ac trans]
+18.6 +14.1 75 +20 +20 1007.0 986.4
06 16.08 СЗ 2 10 км 4/0
[Ci fib]
+22.0 +13.1 57 +25 +29 комфорт 1007.0 986.6 +18.6
09 16.08 СЗ 2 10 км 3/0
[Ci fib]
+28.6 +12.5 37 +30 +40 жарко 1006.0 986.1
12 16.08 З 3 10 км 6/0
[Ci fib]
+31.6 +12.9 32 +32 +36 жарко 1005.0 985.3
15 16.08 ЮЗ 3 10 км 9/4 600 м
[Sc diur, vesp Ci]
+29.2 +15.3 43 +32 +32 душно 1006.0 986.2
18 16.08 ЮЗ 3 10 км 9/8 600 м
[Sc Ci fib]
+25.4 +16.5 58 +29 +29 душно 1007.0 986.9 +32.2
21 16.08 СЗ 4 10 км 9/8 600 м
[Sc Ci fib]
+21.5 +15.8 70 +25 +25 комфорт 1008.0 987.6
00 17.08 ЮЗ 2 10 км 9/8 600 м
[Sc Ci fib]
+19.4 +14.6 74 +22 +22 комфорт 1008.0 987.5
03 17.08 З 1 10 км 9/9 600 м
[Sc Ci fib]
+17.4 +14.5 83 +18 +18 1008.0 987.3
06 17.08 З 2 10 км {ливн. осадки} 10/4 600 м
[Sc Cs]
+17.3 +14.6 84 +18 +18 1008.0 987.3 +17.3 0.0
09 17.08 ЮЗ 3 10 км 8/3 600 м
[Sc Ac trans]
+21.2 +16.6 75 +25 +25 комфорт 1009.0 988.6
12 17.08 ЮЗ 3 10 км 8/8 600 м
[Cu hum]
+23.0 +15.6 63 +27 +27 душно 1008.0 987.7
15 17.08 ЮЗ 2 10 км 8/8 600 м
[Cu hum]
+22.9 +14.2 58 +26 +26 жарко 1009.0 988.7
18 17.08 ЮЗ 2 10 км 9/9 600 м
[Sc]
+20.2 +14.1 68 +23 +23 комфорт 1010.0 989.5 +24.8
21 17.08 З 2 10 км 10/10 600 м
[Sc]
+17.4 +12.9 75 +18 +18 1010.0 989.3
00 18.08 штиль 0 10 км 4/4 600 м
[Sc]
+15.6 +12.0 79 +15 +15 1011.0 990.1
03 18.08 ЮЗ 1 10 км 9/0
[Cs]
+15.0 +12.7 86 +15 +15 1011.0 990.1
06 18.08 ЮЗ 1 10 км 9/8 600 м
[Sc Ac trans]
+17.4 +14.3 82 +18 +18 1011.0 990.3 +14.9
09 18.08 З 2 10 км 8/8 600 м
[Cu med, cong]
+21.6 +13.7 61 +24 +24 комфорт 1012.0 991.5
12 18.08 З 2 10 км 8/8 600 м
[Sc Ac trans]
+24.2 +13.1 50 +26 +26 жарко 1012.0 991.7
15 18.08 З 3 10 км 9/6 600 м
[Sc Ac trans]
+21.8 +13.7 60 +25 +25 комфорт 1013.0 992.5
18 18.08 СЗ 2 10 км 8/8 600 м
[Sc]
+19.0 +13.2 69 +21 +21 комфорт 1014.0 993.3 +24.8
21 18.08 С 1 10 км 4/4 600 м
[Sc]
+17.6 +13.1 75 +19 +19 1016.0 995.2
00 19.08 СЗ 1 10 км 1/1 600 м
[Sc]
+16.2 +12.6 79 +17 +17 1016.0 995.1
03 19.08 СЗ 1 10 км 8/8 600 м
[Sc]
+14.3 +11.8 85 +15 +15 1018.0 996.9
06 19.08 С 3 10 км ясно +19.0 +12.7 67 +20 +26 1018.0 997.2 +14.2
09 19.08 С 3 10 км 3/3 1000 м
[Cu hum]
+23.2 +11.9 49 +26 +34 жарко 1018.0 997.5
12 19.08 СВ 3 10 км 4/4 600 м
[Cu med, cong]
+26.2 +11.5 40 +27 +33 жарко 1018.0 997.7
15 19.08 СВ 2 10 км 4/4 600 м
[Cu hum]
+25.6 +12.1 43 +27 +28 жарко 1018.0 997.7
18 19.08 СЗ 1 10 км ясно +21.8 +12.4 55 +24 +24 комфорт 1019.0 998.4 +27.1
21 19.08 СЗ 1 10 км ясно +19.3 +12.8 66 +22 +22 комфорт 1020.0 999.2
00 20.08 С 1 10 км ясно +17.6 +12.9 74 +19 +19 1020.0 999.1
03 20.08 С 1 10 км ясно +16.4 +13.9 85 +17 +17 1021.0 1000.0
06 20.08 С 2 10 км ясно +20.0 +15.4 75 +23 +29 комфорт 1022.0 1001.2 +16.2
09 20.08 СВ 4 10 км 3/3 600 м
[Cu hum]
+27.2 +13.5 43 +29 +36 жарко 1021.0 1000.7
12 20.08 СВ 4 10 км ясно +29.3 +14.3 40 +31 +38 жарко 1019.7 999.7
15 20.08 СВ 4 10 км ясно +30.1 +11.6 32 +31 +32 жарко 1019.0 998.9
18 20.08 СВ 2 10 км ясно +24.6 +13.2 49 +27 +27 жарко 1021.0 1000.5 +30.4
21 20.08 С 1 10 км ясно +20.8 +13.5 63 +24 +24 комфорт 1022.0 1001.3
00 21.08 С 2 10 км ясно +19.8 +14.6 72 +22 +22 комфорт 1021.0 1000.2
03 21.08 С 2 10 км 3/0
[Ci fib]
+17.0 +12.9 77 +17 +17 1022.0 1001.0
06 21.08 СВ 4 10 км ясно +21.6 +14.0 62 +24 +29 комфорт 1022.0 1001.3 +17.0
09 21.08 СВ 5 10 км ясно +27.8 +11.8 37 +29 +36 жарко 1020.0 999.8
12 21.08 СВ 5 10 км ясно +31.3 +10.6 28 +31 +36 жарко 1018.0 998.0
15 21.08 СВ 6 10 км ясно +31.1 +10.4 28 +31 +31 жарко 1017.0 997.0
18 21.08 СВ 3 10 км 3/0
[Ci fib]
+26.2 +9.9 36 +27 +27 жарко 1018.0 997.7 +32.1
21 21.08 С 2 10 км ясно +21.8 +11.5 52 +24 +24 комфорт 1018.0 997.4
00 22.08 С 1 10 км ясно +20.3 +14.2 68 +24 +24 комфорт 1018.0 997.3
03 22.08 С 2 10 км 3/0
[Ci fib]
+18.4 +13.9 75 +19 +19 1018.0 997.2
06 22.08 С 4 10 км 8/3 600 м
[Sc Ac trans]
+22.4 +16.0 67 +27 +27 душно 1018.0 997.5 +18.3

 

Местоположение метеостанции Лозовая (Харьковская область, Украина): широта 48.90 долгота 36.32 высота над уровнем моря 177 м.

В архиве по умолчанию представлена погода в Лозовой за последнюю неделю. Архивные данные за месяц целиком и за предыдущие месяцы, начиная с января 2011 года, Вы можете получить, выбрав интересующий диапазон дат из раскрывающегося списка и нажав кнопку "Ввод!".


*Определитесь, кто Вы:
робот инопланетянин человек

Внимание! Время в таблицах - всемирное. Для получения местного времени необходимо прибавить поправку, которая равна 2 ч.

Смотрите также архив погоды в соседних городах и на ближайших метеорологических станциях:

Погода в Александрополе (Днепропетровская область, Украина) (37 км)
Погода в Павлограде (Днепропетровская область, Украина) (55 км)
Погода в Изюме (Харьковская область, Украина) (78 км)
Погода в Губинихе (Днепропетровская область, Украина) (79 км)
Погода в Комсомольском (Донецкая область, Украина) (79 км)
Погода в Синельниково (Днепропетровская область, Украина) (82 км)
Погода в Краснограде (Харьковская область, Украина) (83 км)
Погода в Чаплино (Днепропетровская область, Украина) (86 км)
Погода в Днепре (Днепропетровская область, Украина) (104 км)
Погода в Харькове (Харьковская область, Украина) (120 км)

Пояснения к столбцам:

Ветер - указаны скорость ветра в м/с - средняя за 10 мин, порывы в срок и между сроками (в фигурных скобках) и направление, откуда дует ветер: С - северный, СВ - северо-восточный, В - восточный, ЮВ - юго-восточный, Ю - южный, ЮЗ - юго-западный, З - западный, СЗ - северо-западный.
Видимость - горизонтальная дальность видимости в метрах или километрах. При видимости от 1 до 10 км при отсутствии осадков обычно наблюдается дымка, при ухудшении видимости до 1 км и менее - туман. В сухую погоду видимость может ухудшаться дымом, пылью или мглою.
Явления - указаны атмосферные явления, наблюдавшиеся в срок или в последний час перед сроком; фигурными скобками обозначены явления, наблюдавшиеся между сроками (за 1-3 часа до срока); квадратными скобками обозначены град или гололедные отложения с указанием их диаметра в мм.
Облачность - указаны через наклонную черту общая и нижняя облачность в баллах и высота нижней границы облаков в метрах; квадратными скобками обозначены формы облаков: Ci - перистые, Cs - перисто-слоистые, Cc - перисто-кучевые, Ac - высококучевые, As - высокослоистые, Sc - слоисто-кучевые, Ns - слоисто-дождевые, Cu - кучевые, Cb - кучево-дождевые. Подробнее классификацию облаков см. в Атласе облаков (PDF).
T - Температура воздуха - температура, измеренная на высоте 2 м над землей.
Td - Температура точки росы - температура, при понижении до которой содержащийся в воздухе водяной пар достигнет насыщения.
f - Относительная влажность воздуха - влажноcть воздуха, измеренная на высоте 2 м над землей.
Te - Эффективная температура - температура, которую ощущает одетый по сезону человек в тени. Характеристика душности погоды. При расчете учитывается влияние влажности воздуха и скорости ветра на теплоощущения человека.
Tes - Эффективная температура на солнце - температура, которую ощущает человек, с поправкой на солнечный нагрев. Характеристика знойности погоды. Зависит от высоты солнца над горизонтом, облачности и скорости ветра. Ночью, в пасмурную погоду, а также при ветре 12 м/с и более поправка равна нулю.
P - Атмосферное давление - приведенное к уровню моря атмосферное давление.
Po - Атмосферное давление - измеренное на уровне метеостанции атмосферное давление.
Tmin - Минимальная температура - минимум температуры воздуха на высоте 2 м над землей.
Tmax - Максимальная температура - максимум температуры воздуха на высоте 2 м над землей.
R - Количество осадков - Количество выпавших осадков за период времени, мм. При наведении курсора мыши на число - период времени, за который выпало указанное количество осадков.
R24 - Количество осадков - Количество выпавших осадков за 24 часа, мм.
S - Снежный покров - Высота снежного покрова, см. При наведении курсора мыши на число - состояние снежного покрова и степень покрытия местности в баллах.